Wind_Speed
10 9 15 21 24 18 12 15 18 16 19 22 17 18 21 19 16 12 12 18 18 15 14 12 12 11 10 9 9 9 9 8 10 11 12 12 11 15 24 26 23 22 21 20 20 19 17 17 17 16 17 18 18 18 17 16 15 14 14 14 14 13 12
7 10 23 28 26 21 15 16 17 10 16 25 22 22 23 21 19 12 12 14 14 17 15 12 12 12 13 12 9 10 10 8 9 11 11 13 12 13 20 24 24 23 22 21 20 19 19 19 18 17 18 20 21 20 19 18 17 16 15 15 15 14 14
7 11 28 33 27 26 26 23 18 11 14 22 25 25 24 22 20 11 10 13 14 18 16 12 12 13 15 15 12 11 10 9 9 10 10 11 14 16 18 20 21 22 22 22 21 20 21 22 21 19 19 20 22 22 21 20 19 18 17 15 15 15 15
12 13 29 36 30 29 30 26 20 16 14 15 20 23 23 22 20 13 11 13 16 19 17 13 12 12 13 14 15 14 13 13 12 11 10 10 13 15 17 19 19 20 22 23 23 22 23 25 25 22 20 20 22 22 21 22 21 20 19 18 17 17 16
19 17 27 37 33 28 27 25 20 17 14 11 13 18 22 22 21 19 16 14 15 15 14 14 13 11 12 13 16 16 15 17 17 14 13 12 13 15 17 19 20 21 23 24 25 24 25 28 27 25 22 21 22 22 21 21 21 20 20 20 20 19 18
26 21 25 36 38 31 26 23 17 16 16 9 9 13 17 20 22 24 21 18 17 13 13 17 14 11 13 15 17 19 16 16 17 17 16 15 16 17 18 21 23 23 24 25 26 25 25 28 28 25 23 22 21 21 21 21 20 19 19 20 21 20 19
28 23 22 33 40 33 27 24 18 17 17 9 9 14 13 12 15 20 21 21 19 17 15 15 12 10 13 15 17 18 17 16 16 17 19 19 20 22 22 23 24 25 26 26 26 25 24 26 28 27 25 23 22 22 21 20 20 19 18 18 19 20 19
25 23 21 29 37 33 27 26 22 18 18 15 16 18 13 10 14 17 19 22 23 21 18 14 11 11 12 13 16 17 17 18 19 21 23 23 24 24 23 22 21 22 24 24 25 26 24 23 26 28 27 25 24 23 22 21 20 19 18 17 18 18 19
21 21 22 27 34 31 25 25 22 19 19 19 20 19 15 15 20 21 20 20 22 23 22 19 16 13 11 11 14 17 18 19 20 21 22 22 22 20 20 22 22 22 23 23 24 26 23 19 21 25 28 28 26 25 25 23 21 20 19 18 18 17 18
20 21 23 27 33 32 29 24 20 23 26 24 23 23 20 18 23 26 26 22 21 22 25 25 23 19 15 13 14 16 19 19 19 19 20 20 21 21 21 22 22 22 23 24 25 25 22 19 19 21 25 27 28 27 27 25 24 23 21 20 19 19 20
24 22 23 30 34 33 32 26 21 27 33 31 28 27 25 24 25 29 31 29 27 26 27 28 26 22 18 17 15 16 19 21 20 20 21 22 23 24 24 22 21 21 22 25 25 25 24 23 22 22 22 24 27 28 28 26 25 24 22 21 21 21 21
25 23 23 34 37 32 31 30 26 30 35 34 31 30 30 30 29 30 33 34 33 32 33 32 28 20 16 17 17 17 18 20 21 21 22 23 24 24 24 22 22 22 23 26 27 26 26 26 26 25 24 24 26 27 27 26 25 24 22 22 23 23 23
26 25 26 34 36 31 32 34 32 31 34 35 34 34 34 32 31 33 34 35 36 35 35 34 30 22 18 19 21 22 21 19 19 22 24 24 24 24 22 21 23 24 24 26 28 29 28 27 26 26 25 24 25 25 25 26 26 25 24 24 25 26 25
27 29 30 32 32 30 33 36 36 35 35 35 34 35 36 36 36 36 35 34 35 34 32 33 33 30 26 23 22 26 27 23 20 21 22 23 24 25 24 23 23 24 23 24 28 30 28 27 29 30 29 27 26 26 25 26 26 24 23 23 26 28 29
26 27 29 31 32 30 32 37 39 38 37 36 35 37 39 39 39 39 38 35 33 31 30 31 32 33 30 27 24 25 27 26 23 21 21 23 24 24 24 25 25 26 24 22 25 27 27 29 31 31 30 28 28 28 27 26 25 22 20 20 23 27 31
24 23 22 24 25 26 29 33 35 34 34 36 37 39 41 41 41 40 40 39 36 33 31 29 29 29 28 26 24 23 25 26 25 23 22 23 24 23 23 22 22 25 24 22 23 24 25 26 27 27 27 26 27 28 27 26 24 21 20 19 20 23 28
20 21 20 18 17 21 26 29 30 30 33 36 38 39 40 42 43 41 40 41 40 37 35 32 29 28 28 27 25 23 23 24 24 24 25 25 24 24 25 23 22 25 25 23 25 26 25 24 24 25 25 24 25 25 24 23 22 20 18 17 16 17 21
16 19 18 16 16 22 26 28 27 27 31 35 38 39 38 40 44 44 43 42 42 40 39 38 34 32 30 29 28 27 28 28 27 27 28 27 25 23 24 25 26 28 26 24 25 26 24 23 23 25 24 23 24 25 23 22 23 21 18 15 16 16 17
13 17 19 18 19 22 26 27 27 27 28 30 33 34 35 35 40 45 45 44 44 42 41 42 41 37 32 30 29 28 28 31 33 33 32 30 26 23 23 24 24 25 25 24 23 24 24 22 21 23 23 22 22 22 23 23 24 22 19 16 16 16 16
10 13 17 19 20 22 24 27 29 28 27 26 27 29 30 30 34 41 45 46 45 43 42 43 44 41 36 32 33 31 27 25 27 31 34 34 29 27 25 23 22 21 21 21 20 21 24 25 22 21 21 22 24 22 21 22 22 21 19 17 15 15 15
9 11 13 17 19 21 23 25 27 27 27 26 26 27 28 28 29 33 38 42 44 43 41 39 39 41 38 34 35 37 34 29 25 24 27 29 30 31 32 30 26 23 21 22 22 21 22 23 22 20 18 20 23 21 18 18 19 19 17 16 16 17 17
8 9 11 14 18 19 20 21 23 26 27 26 25 25 26 28 28 28 29 33 37 39 37 31 30 35 37 35 34 37 38 37 34 30 27 26 27 30 34 36 34 29 24 24 26 26 27 27 27 26 23 22 22 22 20 18 19 20 18 17 17 19 19
7 9 10 13 16 18 19 19 20 22 23 22 22 25 28 27 27 26 26 28 31 33 33 30 26 27 31 32 33 35 36 36 37 36 33 31 31 31 31 34 36 35 31 27 26 25 25 27 29 31 32 31 31 31 30 29 28 26 24 23 23 23 22
7 9 11 14 16 18 19 19 18 18 19 19 21 25 28 28 27 27 28 29 30 31 31 30 28 26 27 28 30 32 32 31 34 36 33 31 31 32 31 31 33 36 37 36 33 30 27 27 28 30 33 36 37 38 37 35 32 29 27 27 27 28 26
9 10 13 14 15 16 17 17 15 15 17 20 22 24 26 27 27 28 29 29 31 32 32 31 31 29 28 28 28 30 30 28 29 32 33 30 29 29 29 29 30 33 35 37 37 36 35 34 33 33 34 35 38 39 37 36 34 31 29 29 30 31 30
11 12 13 12 12 13 14 15 15 15 16 20 22 23 24 26 26 27 28 28 29 31 31 32 32 31 30 29 27 27 29 30 31 31 31 31 30 30 30 29 29 30 32 34 36 37 38 37 37 37 37 36 37 38 38 37 36 34 33 32 32 32 32
13 13 13 12 10 9 11 14 15 16 16 18 20 22 23 24 26 27 27 27 28 29 29 30 31 31 32 32 30 28 27 29 33 35 35 35 34 34 34 34 33 33 33 34 35 36 38 38 38 39 39 40 40 40 39 39 38 37 36 35 34 34 33
14 14 14 13 11 10 12 13 12 13 15 16 18 20 21 22 25 26 27 27 27 27 28 28 29 30 31 32 33 32 30 29 30 32 34 36 35 34 35 36 37 36 37 37 36 36 38 39 39 40 40 40 41 41 41 40 40 39 39 38 37 37 35
14 15 15 15 13 13 13 13 12 12 14 15 17 19 19 20 22 24 25 26 26 27 27 27 27 27 29 30 32 33 33 33 32 31 31 32 33 33 34 35 36 36 37 38 39 39 39 40 40 41 41 41 41 41 41 40 40 40 40 40 39 39 38
14 15 15 15 14 14 14 15 15 15 15 16 17 18 18 19 20 21 22 23 24 25 26 27 27 26 25 27 29 30 31 33 34 33 32 31 32 33 34 35 36 36 36 37 38 40 41 41 41 42 42 43 43 42 42 41 41 40 40 40 40 40 41
12 13 14 13 13 13 14 15 16 17 17 17 17 17 18 19 19 20 20 21 21 22 23 24 25 25 24 24 25 27 29 31 32 34 34 33 33 34 35 36 37 37 38 38 38 39 41 42 43 43 43 43 44 44 44 43 43 42 40 40 40 41 42
9 10 12 12 11 12 13 14 14 16 17 17 17 18 18 19 20 20 20 20 20 20 21 22 23 23 23 22 22 23 25 28 30 32 33 33 32 32 33 35 36 37 39 40 40 40 41 42 43 44 44 43 43 43 44 44 45 44 43 42 41 41 41
9 10 10 10 10 11 11 12 13 14 15 16 17 17 18 20 21 22 21 21 21 21 21 21 22 22 22 21 20 20 21 25 28 31 33 33 32 30 30 32 33 34 37 39 41 42 42 43 44 45 45 45 44 43 43 44 44 45 45 45 44 43 42
10 10 11 11 11 12 12 13 14 14 14 15 16 16 16 18 20 21 21 21 22 22 22 22 22 22 22 21 20 19 19 20 22 26 30 32 33 32 32 32 32 32 33 35 38 40 41 42 43 44 46 46 46 45 45 45 44 44 45 46 47 46 45
11 12 13 14 14 13 14 15 15 15 14 15 16 15 15 16 17 19 20 20 21 22 22 23 23 23 24 23 22 21 19 19 19 21 24 26 29 30 32 32 33 33 33 33 35 36 38 39 40 42 44 45 47 47 47 47 46 46 45 46 48 49 49
14 14 15 16 16 15 15 15 16 16 16 16 16 16 17 17 18 19 20 21 21 22 23 23 24 25 25 24 24 23 21 21 20 21 22 23 24 26 28 29 31 33 34 35 36 36 37 38 38 39 39 41 43 45 46 46 47 47 46 46 48 49 49
15 16 17 17 18 17 17 17 17 17 18 17 17 18 19 19 20 21 22 23 23 23 24 24 25 26 26 26 25 25 24 23 22 22 22 23 24 24 25 25 27 29 31 33 35 37 38 38 39 40 39 39 40 41 42 43 44 45 45 45 46 48 49
Wind_Direction
248 210 182 189 183 178 189 209 225 225 203 191 178 184 199 205 204 199 221 237 246 258 262 256 246 244 254 260 259 255 257 253 236 230 233 233 239 230 215 213 217 218 221 224 224 225 225 227 227 223 224 227 227 226 228 226 221 215 210 207 209 215 219
242 200 174 176 175 171 174 201 225 233 208 203 192 186 194 196 192 207 240 241 246 253 257 259 250 246 249 251 254 251 251 253 233 225 229 230 231 221 211 214 220 221 224 228 229 228 228 229 227 219 217 224 227 224 226 229 227 223 220 214 212 214 220
208 187 175 176 176 171 167 183 205 202 199 209 204 193 190 188 185 201 243 245 249 253 256 261 251 245 244 243 246 245 241 239 228 224 231 232 229 224 217 218 220 220 223 228 232 231 230 232 230 222 216 221 227 225 225 228 230 230 230 226 222 219 221
171 172 179 179 177 179 178 180 187 184 186 201 208 204 198 188 183 195 228 243 249 248 247 248 242 241 243 240 239 238 237 236 231 230 237 239 235 227 221 220 221 222 222 226 232 232 230 232 231 225 217 219 227 227 225 227 229 232 233 234 232 228 227
164 165 186 186 178 175 179 181 185 184 180 191 212 211 204 194 182 187 214 243 254 249 238 231 231 241 243 233 229 228 232 237 237 238 238 239 240 232 224 222 222 224 226 228 232 233 231 232 231 227 219 219 225 227 226 227 229 232 233 236 238 236 234
172 174 187 187 176 168 173 183 186 178 167 176 230 222 210 207 194 192 208 232 243 242 236 229 227 236 238 230 226 223 223 232 238 240 236 231 233 232 228 226 223 222 224 224 224 229 232 231 230 227 221 220 225 226 226 226 228 230 230 233 237 238 236
179 183 186 184 181 180 186 189 183 176 170 173 227 224 217 225 218 212 223 235 233 227 230 231 229 240 242 237 234 230 226 229 230 232 232 228 228 229 227 228 227 224 224 222 219 221 228 231 229 227 223 220 222 224 224 225 227 227 225 227 233 236 235
191 188 182 177 181 185 189 188 183 183 184 182 196 203 204 230 241 232 235 245 240 230 229 230 232 243 241 236 239 237 234 232 228 227 229 229 228 227 227 229 233 232 230 231 228 221 225 234 234 230 226 221 221 223 224 224 223 223 222 223 229 233 233
206 197 187 174 174 176 171 171 180 192 196 189 189 197 205 227 235 222 217 235 241 236 237 235 231 232 227 228 233 231 231 233 231 230 230 230 230 230 231 231 231 229 225 228 231 226 229 242 243 235 230 224 221 222 224 222 221 222 221 220 224 229 229
217 205 196 179 173 170 160 159 181 198 203 204 207 214 224 234 233 219 214 226 233 232 237 240 238 231 228 241 245 233 229 229 227 228 228 230 232 235 238 237 234 232 224 217 217 219 224 235 238 234 230 226 223 224 225 223 223 225 222 218 222 227 226
228 219 200 179 171 168 166 172 189 196 200 209 211 213 225 232 227 219 221 227 227 225 229 234 238 237 237 247 251 239 230 224 221 222 225 228 231 233 237 238 236 238 232 220 212 210 215 221 226 227 224 223 223 224 225 226 229 232 229 222 222 225 227
228 228 206 183 175 173 179 186 191 192 197 204 203 205 218 225 220 219 224 228 228 225 222 225 230 237 239 233 229 232 230 224 223 224 225 227 229 231 232 231 228 228 228 225 217 211 212 216 219 221 221 222 223 222 223 226 230 235 236 231 227 227 228
223 226 209 189 181 180 186 190 191 193 196 199 202 206 214 218 216 217 220 225 230 227 221 221 222 226 233 226 222 233 235 225 223 226 227 227 226 226 227 228 229 228 229 228 219 211 212 216 217 217 219 223 225 223 223 225 228 232 236 237 234 231 231
226 227 218 207 199 191 190 194 195 195 197 200 203 203 207 214 216 216 215 221 230 230 226 225 221 221 234 237 232 239 239 230 224 225 229 232 228 224 223 225 229 230 233 231 221 213 212 213 213 211 210 213 216 218 220 223 226 228 232 238 238 236 235
226 229 224 221 218 207 199 200 198 196 199 205 205 201 203 211 216 218 218 222 229 229 227 229 226 225 234 239 239 241 240 237 236 232 229 230 230 227 224 224 228 229 231 229 224 220 218 216 214 212 209 210 211 212 216 220 223 225 229 236 240 238 237
224 226 223 223 226 221 213 209 204 202 207 210 208 204 205 210 215 219 222 225 228 226 226 233 235 231 231 233 234 237 237 240 244 243 237 233 233 233 229 226 227 227 224 219 218 220 221 221 222 220 219 217 211 210 213 218 222 227 231 233 237 240 240
228 223 215 212 220 226 225 223 217 215 218 216 212 211 210 212 214 217 222 227 229 228 230 236 242 241 239 237 236 235 236 240 242 243 242 239 238 238 236 233 230 226 221 217 217 218 218 218 219 220 222 220 215 214 216 219 221 226 229 227 231 243 246
231 223 212 205 211 220 227 232 231 225 223 221 217 217 219 219 217 217 221 226 229 231 233 235 242 248 247 245 246 245 243 242 240 241 242 242 240 239 236 235 233 229 224 220 219 218 217 216 215 217 219 218 218 220 223 225 226 225 224 222 225 232 237
233 228 218 212 215 222 227 231 234 232 230 228 223 219 221 223 221 220 222 224 227 232 235 237 241 245 245 244 245 246 246 244 241 242 243 243 241 238 235 235 233 229 226 226 223 220 220 221 219 218 221 222 223 226 229 232 232 227 220 216 218 219 220
232 233 228 220 218 224 228 229 233 236 238 239 233 222 218 221 221 222 224 227 229 232 236 239 241 242 243 244 241 239 243 246 243 242 241 240 238 235 232 230 227 225 228 233 232 226 226 230 232 232 233 232 229 229 230 230 229 228 224 221 222 224 223
233 234 233 227 223 226 229 231 234 237 239 242 240 228 221 222 224 224 227 230 231 233 236 240 241 241 242 245 241 237 240 244 241 239 240 239 236 233 231 229 226 227 235 241 239 233 229 230 232 234 237 234 228 223 219 221 230 236 234 230 230 233 233
235 233 234 232 231 234 235 234 235 237 238 242 243 238 232 229 228 228 229 231 231 234 237 242 243 241 241 244 244 240 241 243 242 241 243 245 240 233 230 230 231 234 239 243 244 243 243 242 238 235 234 233 230 226 226 236 248 252 248 243 243 244 243
234 231 231 231 234 241 244 243 241 239 240 243 246 245 243 237 231 230 232 233 233 236 241 246 250 247 243 244 244 243 244 246 246 246 247 248 245 239 234 234 236 236 236 237 239 238 239 241 241 240 240 241 241 242 248 257 264 263 260 257 257 256 255
239 235 233 231 234 239 244 250 253 250 247 248 248 248 247 243 238 237 238 238 239 242 246 250 253 253 248 245 243 243 245 248 247 246 246 245 244 241 238 237 238 239 239 240 242 240 237 238 240 243 246 249 251 254 258 263 265 265 263 262 262 263 262
248 242 239 237 239 242 244 251 258 261 257 253 250 249 248 246 244 245 246 245 246 249 252 253 254 254 252 249 246 244 244 244 242 241 241 243 246 246 242 238 236 238 240 243 245 245 244 242 241 243 247 251 253 256 258 260 261 261 262 261 262 264 264
256 251 249 248 247 248 250 251 256 263 263 256 252 251 251 251 252 252 251 251 251 253 254 255 255 254 252 251 250 248 245 241 238 237 240 245 250 252 251 246 240 239 239 242 244 246 247 246 244 244 247 250 253 255 257 258 259 259 259 259 259 260 259
261 261 261 263 265 263 260 258 259 264 264 260 257 256 254 255 257 255 254 254 255 255 255 255 255 254 252 251 252 253 252 248 245 246 248 251 253 254 255 253 249 245 241 242 244 245 246 248 248 247 248 250 253 255 256 257 258 258 258 256 256 255 255
264 266 266 268 270 267 264 263 266 271 270 265 262 258 257 258 259 258 257 257 257 258 258 257 257 257 256 254 253 254 254 253 253 253 255 257 258 259 258 256 254 249 244 244 247 247 247 247 249 250 249 250 252 253 254 255 256 257 257 256 255 254 254
259 259 261 263 265 265 266 266 266 269 269 267 263 260 259 260 261 261 260 260 260 261 262 262 263 262 261 260 259 257 256 255 255 256 258 259 259 259 257 256 254 252 247 245 247 250 251 250 250 251 251 251 251 252 252 253 253 253 254 254 254 254 254
259 260 261 263 265 267 268 266 266 266 265 264 265 264 262 261 262 262 261 262 263 264 265 266 267 267 267 265 263 262 260 259 258 258 258 259 260 259 257 255 255 255 253 249 248 249 251 252 252 252 251 251 252 252 252 252 252 251 252 252 252 252 253
268 269 269 268 268 268 268 268 270 271 268 266 266 267 266 265 265 264 263 263 265 267 269 270 270 270 270 268 266 264 262 260 259 259 259 260 261 260 258 257 256 255 255 254 252 250 250 251 252 252 252 252 252 252 252 252 251 251 251 251 251 251 251
279 279 278 276 275 274 273 273 275 275 274 271 269 268 268 268 270 270 268 266 267 269 271 273 274 274 274 272 269 265 262 259 258 258 258 260 261 261 260 258 257 256 255 255 254 253 251 251 251 252 253 253 253 253 253 253 252 251 251 251 250 250 249
287 287 285 282 280 279 278 277 274 273 275 276 273 271 269 269 271 273 273 271 270 271 272 274 275 277 277 276 274 270 266 262 258 257 257 258 261 263 263 261 260 259 257 256 255 255 254 253 253 253 253 253 253 253 253 253 253 253 253 252 251 250 248
284 286 283 281 279 279 281 280 278 276 277 279 280 278 275 274 273 274 275 276 275 274 274 275 276 276 277 278 278 276 273 270 265 261 259 260 261 262 262 262 262 261 261 259 258 257 256 256 256 255 255 255 254 252 251 251 252 254 255 254 253 252 250
279 278 278 279 279 280 281 280 279 279 278 278 281 281 278 277 277 277 277 277 277 277 277 276 276 276 276 276 276 275 274 272 270 267 265 263 263 262 261 260 259 259 260 261 260 259 259 259 259 259 259 258 258 256 254 252 252 254 256 255 253 252 252
276 275 277 278 278 280 281 280 280 280 278 278 280 280 278 275 275 275 276 276 275 275 276 277 277 276 276 275 275 275 273 270 268 267 266 265 265 264 263 261 260 258 258 257 257 258 258 258 260 260 260 260 260 260 259 257 256 256 256 256 254 251 251
277 277 279 280 279 279 280 281 281 281 279 278 278 277 276 275 274 274 274 274 275 275 275 276 277 277 277 277 277 277 275 273 270 268 267 267 267 266 265 264 264 262 260 258 256 256 256 256 258 260 261 261 261 261 262 261 261 259 258 257 256 253 252
Height
5841 5844 5847 5849 5852 5855 5858 5861 5863 5865 5869 5870 5870 5872 5874 5876 5878 5880 5880 5880 5882 5884 5884 5886 5887 5888 5888 5889 5890 5891 5892 5893 5894 5896 5897 5899 5900 5901 5903 5906 5908 5909 5911 5913 5915 5916 5917 5919 5921 5923 5925 5926 5927 5929 5930 5932 5933 5935 5936 5937 5938 5940 5942
5841 5842 5845 5848 5851 5853 5856 5860 5862 5864 5867 5868 5867 5869 5871 5874 5877 5878 5879 5880 5881 5882 5882 5884 5886 5887 5887 5888 5890 5891 5892 5893 5893 5895 5896 5898 5899 5900 5902 5904 5906 5908 5910 5911 5913 5914 5916 5917 5919 5922 5923 5923 5924 5926 5928 5930 5932 5933 5934 5936 5937 5938 5940
5838 5840 5844 5847 5849 5850 5852 5856 5859 5861 5863 5866 5867 5868 5870 5872 5874 5876 5876 5877 5878 5878 5880 5882 5884 5885 5886 5887 5889 5891 5892 5892 5893 5894 5895 5896 5898 5899 5901 5903 5904 5906 5908 5910 5911 5912 5914 5914 5916 5919 5922 5922 5922 5924 5926 5928 5930 5932 5933 5934 5936 5937 5938
5833 5837 5842 5845 5847 5848 5850 5852 5855 5857 5860 5863 5866 5868 5870 5871 5873 5874 5874 5873 5874 5875 5877 5880 5881 5883 5884 5885 5887 5889 5890 5891 5892 5893 5894 5896 5897 5899 5901 5902 5903 5904 5906 5908 5909 5910 5911 5912 5913 5916 5919 5920 5920 5922 5924 5926 5928 5930 5931 5933 5934 5935 5937
5830 5833 5836 5840 5843 5847 5851 5852 5853 5856 5859 5862 5864 5867 5868 5870 5870 5871 5871 5871 5871 5872 5874 5876 5879 5881 5881 5882 5883 5885 5888 5889 5891 5892 5894 5895 5896 5897 5899 5900 5901 5902 5904 5905 5906 5908 5908 5909 5910 5913 5917 5919 5919 5920 5922 5924 5926 5928 5929 5931 5932 5933 5935
5828 5828 5831 5836 5840 5844 5847 5850 5854 5856 5859 5861 5863 5865 5866 5868 5869 5869 5869 5869 5869 5870 5871 5873 5876 5878 5879 5880 5881 5882 5884 5886 5889 5890 5892 5893 5894 5895 5896 5897 5898 5899 5900 5902 5904 5905 5906 5906 5908 5911 5914 5917 5918 5919 5920 5921 5923 5925 5927 5928 5930 5931 5933
5827 5828 5832 5836 5840 5841 5843 5847 5852 5856 5858 5859 5862 5864 5865 5866 5868 5869 5868 5867 5867 5869 5869 5871 5874 5876 5877 5878 5880 5881 5881 5883 5886 5887 5889 5890 5890 5891 5892 5894 5895 5896 5898 5901 5903 5904 5904 5905 5906 5908 5911 5914 5916 5917 5918 5919 5920 5922 5924 5926 5927 5929 5931
5826 5828 5830 5833 5837 5839 5841 5844 5849 5854 5855 5856 5859 5861 5863 5864 5865 5866 5865 5864 5865 5867 5868 5870 5873 5874 5875 5876 5879 5880 5879 5880 5882 5883 5885 5886 5886 5888 5891 5893 5894 5896 5899 5902 5903 5904 5904 5905 5905 5907 5909 5911 5913 5915 5916 5917 5918 5920 5921 5923 5925 5926 5928
5826 5828 5830 5832 5834 5837 5841 5844 5848 5851 5852 5854 5856 5857 5859 5859 5858 5859 5860 5860 5862 5865 5866 5869 5871 5872 5873 5874 5876 5878 5878 5878 5880 5881 5883 5884 5887 5889 5891 5892 5892 5893 5896 5898 5900 5902 5904 5905 5905 5906 5906 5908 5911 5912 5914 5915 5916 5918 5919 5921 5922 5924 5925
5825 5827 5829 5831 5833 5836 5840 5841 5842 5844 5846 5847 5849 5851 5854 5854 5852 5854 5857 5857 5859 5862 5864 5866 5868 5871 5872 5873 5874 5876 5876 5877 5878 5881 5883 5884 5886 5888 5889 5890 5891 5892 5892 5893 5895 5898 5901 5902 5903 5903 5904 5906 5908 5910 5911 5913 5914 5915 5917 5919 5920 5921 5922
5824 5825 5827 5829 5831 5833 5834 5833 5832 5836 5840 5843 5846 5849 5851 5851 5850 5851 5853 5853 5855 5858 5861 5863 5866 5868 5870 5871 5871 5873 5874 5875 5876 5878 5880 5881 5882 5883 5885 5887 5890 5892 5892 5892 5892 5894 5896 5898 5899 5900 5901 5903 5905 5907 5909 5911 5912 5913 5915 5917 5918 5919 5920
5820 5822 5824 5826 5827 5828 5830 5829 5829 5833 5838 5841 5844 5846 5844 5844 5845 5846 5847 5849 5851 5854 5857 5861 5864 5866 5868 5868 5868 5869 5871 5873 5874 5875 5876 5876 5878 5880 5881 5884 5886 5888 5889 5889 5889 5890 5891 5893 5895 5896 5898 5900 5902 5904 5906 5908 5910 5911 5912 5914 5915 5917 5918
5815 5818 5821 5823 5824 5826 5827 5827 5828 5830 5834 5837 5838 5839 5839 5840 5841 5842 5844 5846 5846 5850 5855 5860 5863 5864 5864 5865 5867 5867 5868 5870 5872 5873 5873 5873 5874 5877 5879 5882 5883 5885 5886 5887 5887 5886 5887 5890 5892 5894 5895 5898 5900 5902 5903 5905 5906 5908 5909 5911 5912 5914 5915
5813 5814 5818 5821 5822 5824 5825 5825 5825 5826 5829 5830 5831 5834 5837 5839 5839 5839 5842 5843 5843 5847 5853 5857 5860 5861 5860 5862 5865 5865 5865 5868 5871 5873 5873 5872 5872 5873 5877 5879 5881 5883 5885 5885 5885 5884 5884 5886 5887 5888 5889 5892 5895 5897 5899 5901 5902 5904 5906 5907 5908 5910 5911
5811 5812 5815 5818 5819 5821 5822 5822 5822 5823 5824 5825 5827 5831 5834 5836 5837 5838 5839 5840 5842 5846 5849 5851 5854 5856 5857 5859 5861 5861 5862 5865 5867 5870 5872 5872 5871 5872 5873 5874 5876 5879 5881 5882 5884 5884 5884 5885 5885 5885 5886 5887 5889 5891 5895 5897 5899 5900 5902 5903 5904 5905 5906
5808 5810 5813 5815 5816 5818 5819 5819 5821 5822 5822 5823 5825 5828 5830 5833 5835 5836 5837 5838 5840 5843 5845 5845 5848 5851 5854 5857 5858 5859 5860 5861 5863 5866 5868 5870 5871 5871 5871 5871 5873 5875 5876 5879 5881 5882 5883 5884 5885 5886 5886 5886 5887 5889 5891 5894 5896 5897 5899 5900 5901 5901 5902
5807 5808 5810 5812 5814 5815 5817 5819 5821 5822 5821 5821 5824 5826 5828 5830 5832 5834 5835 5835 5837 5840 5842 5843 5844 5846 5850 5853 5856 5858 5859 5859 5860 5862 5863 5865 5867 5869 5869 5870 5872 5872 5873 5876 5878 5878 5879 5881 5883 5884 5884 5885 5886 5887 5889 5891 5893 5894 5895 5896 5897 5897 5898
5806 5806 5808 5810 5811 5813 5814 5816 5818 5819 5819 5819 5821 5823 5825 5827 5829 5830 5831 5832 5834 5837 5839 5840 5842 5843 5845 5849 5852 5855 5856 5856 5856 5857 5858 5859 5861 5864 5866 5867 5868 5868 5870 5872 5874 5874 5875 5876 5878 5880 5882 5883 5883 5884 5886 5888 5890 5891 5892 5893 5893 5894 5896
5804 5805 5806 5808 5809 5811 5812 5812 5814 5815 5815 5816 5819 5822 5823 5825 5826 5827 5828 5829 5831 5833 5835 5837 5839 5840 5843 5846 5848 5850 5850 5850 5851 5851 5853 5856 5858 5860 5862 5863 5863 5865 5866 5867 5869 5870 5872 5874 5876 5877 5879 5880 5881 5881 5883 5885 5886 5888 5889 5891 5892 5893 5894
5803 5804 5805 5806 5807 5807 5808 5809 5810 5812 5813 5815 5817 5819 5820 5822 5823 5825 5826 5827 5829 5831 5833 5834 5835 5837 5839 5841 5843 5844 5843 5844 5846 5846 5848 5852 5854 5856 5859 5859 5860 5862 5863 5864 5866 5869 5870 5872 5873 5873 5875 5877 5878 5879 5880 5882 5883 5885 5886 5888 5891 5892 5892
5801 5802 5803 5804 5805 5804 5805 5807 5808 5809 5811 5812 5813 5815 5818 5819 5819 5822 5824 5825 5826 5828 5829 5830 5832 5833 5835 5836 5837 5838 5838 5839 5841 5843 5844 5847 5850 5852 5855 5856 5857 5859 5861 5862 5864 5866 5868 5869 5870 5871 5872 5874 5875 5877 5878 5880 5881 5882 5884 5886 5887 5889 5890
5800 5801 5801 5802 5802 5802 5803 5805 5806 5807 5809 5810 5811 5812 5814 5815 5816 5820 5822 5821 5822 5823 5824 5826 5828 5829 5830 5832 5832 5833 5833 5835 5838 5840 5841 5843 5845 5848 5851 5853 5854 5856 5859 5860 5861 5863 5865 5867 5868 5869 5870 5872 5874 5875 5876 5877 5879 5880 5881 5883 5884 5885 5886
5799 5799 5800 5800 5801 5801 5801 5803 5804 5805 5807 5808 5808 5808 5809 5811 5815 5818 5818 5818 5818 5819 5819 5822 5824 5825 5826 5828 5829 5830 5831 5833 5836 5838 5839 5840 5842 5844 5847 5849 5850 5852 5855 5856 5857 5858 5860 5863 5864 5865 5867 5868 5869 5870 5871 5873 5875 5877 5878 5880 5881 5882 5883
5797 5797 5797 5798 5798 5799 5800 5801 5802 5804 5804 5805 5805 5805 5806 5809 5813 5814 5814 5815 5815 5815 5816 5818 5820 5822 5823 5825 5826 5828 5829 5831 5833 5834 5834 5835 5837 5840 5843 5846 5848 5849 5850 5852 5853 5854 5856 5858 5859 5861 5862 5863 5864 5866 5867 5869 5871 5873 5875 5877 5878 5879 5881
5796 5795 5795 5796 5797 5798 5799 5800 5801 5801 5802 5802 5803 5803 5804 5807 5809 5809 5810 5812 5812 5812 5814 5815 5817 5819 5821 5822 5824 5825 5827 5828 5829 5830 5831 5832 5835 5836 5839 5842 5844 5846 5847 5848 5849 5851 5853 5855 5856 5857 5858 5859 5860 5862 5864 5866 5867 5869 5872 5874 5875 5877 5878
5794 5794 5794 5795 5796 5797 5798 5798 5799 5799 5799 5800 5800 5801 5802 5804 5805 5805 5807 5808 5809 5810 5811 5812 5814 5815 5817 5819 5820 5822 5823 5825 5826 5827 5828 5830 5831 5833 5834 5837 5839 5842 5843 5845 5846 5847 5848 5850 5852 5854 5854 5855 5856 5857 5860 5861 5863 5864 5867 5869 5871 5873 5874
5793 5793 5794 5794 5795 5796 5796 5796 5797 5797 5797 5797 5798 5799 5801 5801 5801 5801 5804 5806 5806 5807 5808 5809 5810 5812 5813 5815 5816 5817 5819 5821 5823 5824 5825 5827 5828 5829 5830 5831 5834 5837 5839 5841 5842 5843 5843 5844 5846 5848 5850 5851 5852 5853 5855 5857 5858 5859 5861 5863 5865 5867 5869
5792 5792 5792 5793 5794 5794 5794 5795 5795 5795 5795 5796 5796 5797 5799 5799 5798 5799 5801 5802 5803 5804 5805 5806 5807 5808 5809 5811 5812 5813 5815 5817 5819 5820 5822 5823 5825 5826 5826 5827 5828 5831 5833 5836 5838 5838 5839 5839 5840 5842 5844 5846 5847 5848 5850 5852 5854 5855 5856 5858 5860 5862 5863
5791 5791 5791 5791 5792 5793 5793 5793 5794 5794 5794 5794 5794 5795 5796 5796 5795 5796 5798 5799 5800 5801 5802 5803 5804 5805 5806 5807 5808 5809 5811 5813 5814 5816 5818 5819 5821 5822 5823 5823 5824 5825 5827 5830 5832 5834 5835 5836 5837 5837 5838 5840 5842 5843 5845 5847 5849 5850 5851 5853 5855 5857 5858
5789 5789 5789 5790 5791 5791 5792 5792 5792 5792 5792 5792 5792 5793 5794 5794 5793 5794 5795 5796 5797 5798 5798 5799 5801 5802 5803 5804 5804 5805 5807 5808 5810 5811 5813 5815 5816 5818 5819 5820 5821 5822 5823 5825 5826 5829 5830 5832 5833 5834 5835 5836 5837 5838 5839 5841 5842 5844 5846 5848 5850 5852 5853
5787 5788 5788 5789 5789 5790 5790 5790 5790 5790 5791 5791 5791 5791 5792 5792 5792 5792 5793 5794 5794 5795 5795 5796 5797 5798 5800 5801 5801 5802 5803 5804 5805 5807 5808 5810 5812 5813 5814 5816 5817 5818 5819 5820 5822 5823 5825 5827 5828 5829 5831 5832 5832 5833 5834 5835 5836 5838 5840 5842 5844 5846 5847
5786 5786 5786 5787 5788 5788 5788 5789 5789 5789 5788 5789 5789 5790 5790 5790 5790 5790 5790 5791 5792 5792 5792 5793 5794 5794 5796 5797 5798 5799 5800 5800 5801 5802 5804 5805 5807 5808 5810 5811 5813 5814 5815 5816 5817 5819 5820 5822 5823 5824 5825 5826 5827 5828 5829 5830 5832 5833 5834 5836 5838 5839 5841
5785 5785 5785 5785 5786 5786 5786 5787 5787 5787 5787 5786 5787 5787 5787 5787 5788 5788 5788 5788 5789 5790 5790 5790 5791 5792 5792 5793 5795 5796 5796 5797 5797 5799 5799 5800 5802 5803 5805 5806 5807 5808 5809 5810 5812 5814 5815 5817 5818 5819 5820 5821 5821 5823 5824 5825 5826 5828 5829 5830 5831 5833 5834
5783 5783 5782 5783 5783 5784 5784 5784 5784 5785 5785 5785 5785 5785 5785 5785 5785 5785 5786 5786 5786 5787 5787 5788 5789 5789 5790 5791 5792 5793 5793 5793 5794 5795 5795 5796 5797 5798 5799 5801 5802 5803 5804 5805 5807 5808 5809 5811 5813 5814 5815 5815 5816 5818 5819 5820 5821 5822 5823 5824 5825 5827 5828
5781 5781 5780 5781 5781 5782 5782 5782 5782 5783 5783 5783 5783 5783 5783 5783 5783 5783 5783 5783 5784 5784 5784 5784 5785 5786 5786 5787 5789 5790 5791 5791 5791 5792 5792 5793 5793 5793 5794 5796 5797 5798 5799 5800 5801 5802 5803 5805 5806 5808 5809 5810 5810 5812 5813 5815 5816 5817 5818 5818 5820 5821 5822
5779 5779 5779 5779 5779 5779 5780 5780 5780 5780 5781 5781 5781 5781 5781 5781 5781 5781 5781 5781 5781 5781 5781 5781 5781 5782 5782 5783 5785 5786 5787 5788 5789 5789 5789 5789 5790 5790 5790 5791 5791 5793 5794 5795 5796 5797 5797 5799 5800 5801 5802 5804 5805 5806 5807 5808 5810 5811 5812 5813 5814 5815 5816
5777 5777 5776 5776 5777 5777 5778 5778 5778 5778 5778 5778 5779 5778 5778 5778 5778 5778 5778 5778 5778 5778 5778 5778 5778 5778 5778 5779 5780 5781 5782 5784 5785 5785 5786 5786 5786 5786 5786 5786 5787 5787 5788 5789 5790 5791 5792 5792 5793 5794 5796 5797 5798 5800 5801 5802 5803 5804 5805 5806 5808 5809 5810